Powrót do katalogu

COSMOS 1275 DEB

LostPO
NORAD 39953·DEBRIS·🇷🇺 Russia

Wystrzelony Jun 4, 1981 z Plesetsk Cosmodrome

Loading…

Następne Przeloty (najbliższe 24 godziny)

TLE

NieaktualneSource: Space-Track

Epoka: Aug 14, 2025, 12:22 UTC

1 39953U 81053NP  25226.51591066  .00000122  00000-0  13908-3 0  9995
2 39953  82.9728 322.8720 0179235  67.2313 306.8259 13.55031655 12134

Śledź COSMOS 1275 DEB w czasie rzeczywistym z AllMySat

Download on the App Store